GW2512 Weather Reports


time (UTC)temp
C
wind
direction
speed
KPH
gust
KPH
rain 1hr
cm
rain 24hr
cm
rain mn
cm
humidity
%
barometer
mb
20260506080853 16 201 4.8 4.8 0.00 0.00 0.00 87 1015.3
20260506080349 16 175 3.2 3.2 0.00 0.00 0.00 87 1015.2
20260506073333 16 174 4.8 8.0 0.00 0.00 0.00 87 1015.4
20260506072830 16 160 4.8 8.0 0.00 0.00 0.00 87 1015.4
20260506072328 16 166 4.8 4.8 0.00 0.00 0.00 87 1015.3
20260506071825 16 157 4.8 4.8 0.00 0.00 0.00 87 1015.2
20260506071323 16 215 4.8 4.8 0.00 0.00 0.00 87 1015.3
20260506070820 16 171 4.8 4.8 0.00 0.00 0.00 87 1015.3
20260506070317 16 196 3.2 3.2 0.00 0.00 0.00 87 1015.4
20260506062254 16 162 3.2 3.2 0.00 0.00 0.00 85 1015.5
20260506061750 16 162 3.2 3.2 0.00 0.00 0.00 85 1015.7
20260506061247 17 169 4.8 4.8 0.00 0.00 0.00 85 1015.7
20260506060745 17 199 6.4 8.0 0.00 0.00 0.00 85 1015.8
20260506060243 17 166 3.2 3.2 0.00 0.00 0.00 85 1016.1
20260506051209 17 185 6.4 9.7 0.00 0.00 0.00 83 1016.5
20260506050707 17 170 4.8 4.8 0.00 0.00 0.00 83 1016.5
20260506050204 17 181 6.4 9.7 0.00 0.00 0.00 84 1016.4
20260506044655 17 158 4.8 8.0 0.00 0.00 0.00 84 1016.4
20260506044151 17 186 6.4 8.0 0.00 0.00 0.00 84 1016.4
20260506043649 17 161 3.2 4.8 0.00 0.00 0.00 84 1016.6
20260506043147 17 159 6.4 8.0 0.00 0.00 0.00 84 1016.7
20260506042646 17 174 4.8 4.8 0.00 0.00 0.00 83 1016.7
20260506042143 17 167 4.8 4.8 0.00 0.00 0.00 83 1016.8
20260506041642 17 175 6.4 9.7 0.00 0.00 0.00 83 1016.8
20260506041138 17 195 4.8 4.8 0.00 0.00 0.00 82 1016.7
20260506040635 17 183 8.0 9.7 0.00 0.00 0.00 83 1016.7
20260506040132 17 199 9.7 12.9 0.00 0.00 0.00 82 1016.7
20260506035629 17 164 6.4 9.7 0.00 0.00 0.00 82 1016.6
20260506035126 17 161 4.8 4.8 0.00 0.00 0.00 82 1016.7
20260506034623 17 174 6.4 8.0 0.00 0.00 0.00 82 1016.7
20260506034120 17 182 6.4 8.0 0.00 0.00 0.00 81 1016.8
20260506033617 17 182 8.0 11.3 0.00 0.00 0.00 81 1016.6
20260506033114 17 193 8.0 11.3 0.00 0.00 0.00 81 1016.7
20260506032612 17 218 8.0 9.7 0.00 0.00 0.00 81 1016.7
20260506032108 17 160 8.0 9.7 0.00 0.00 0.00 80 1016.8
20260506031605 17 165 6.4 8.0 0.00 0.00 0.00 80 1016.7
20260506031102 17 157 4.8 4.8 0.00 0.00 0.00 80 1016.9
20260506030601 17 161 6.4 8.0 0.00 0.00 0.00 80 1016.7
20260506030057 17 157 6.4 8.0 0.00 0.00 0.00 79 1016.9
20260506025554 17 162 8.0 8.0 0.00 0.00 0.00 79 1016.9
20260506025050 17 160 4.8 4.8 0.00 0.00 0.00 79 1017.0
20260506024548 17 184 8.0 9.7 0.00 0.00 0.00 79 1016.9
20260506024044 17 189 6.4 9.7 0.00 0.00 0.00 79 1017.2
20260506023540 18 176 4.8 4.8 0.00 0.00 0.00 78 1017.3
20260506023038 18 167 4.8 4.8 0.00 0.00 0.00 78 1017.2
20260506022535 18 162 8.0 8.0 0.00 0.00 0.00 78 1017.3
20260506022033 18 183 8.0 9.7 0.00 0.00 0.00 77 1017.0
20260506021530 18 161 6.4 8.0 0.00 0.00 0.00 76 1017.0
20260506021027 18 203 6.4 9.7 0.00 0.00 0.00 76 1017.2
20260506020525 18 170 8.0 11.3 0.00 0.00 0.00 75 1017.0
20260506020022 19 163 6.4 8.0 0.00 0.00 0.00 75 1017.1
20260506015519 19 174 6.4 8.0 0.00 0.00 0.00 74 1016.8
20260506015016 19 190 6.4 8.0 0.00 0.00 0.00 75 1016.9
20260506014514 19 193 11.3 12.9 0.00 0.00 0.00 74 1016.6
20260506014009 19 184 8.0 9.7 0.00 0.00 0.00 73 1016.7
20260506013507 19 180 8.0 8.0 0.00 0.00 0.00 73 1016.7
20260506013004 19 158 8.0 11.3 0.00 0.00 0.00 73 1016.7
20260506012500 19 201 11.3 14.5 0.00 0.00 0.00 73 1016.6
20260506011957 19 168 8.0 11.3 0.00 0.00 0.00 72 1016.8
20260506011454 20 189 8.0 9.7 0.00 0.00 0.00 72 1016.4
20260506010951 20 166 6.4 9.7 0.00 0.00 0.00 71 1016.6
20260506010450 20 189 11.3 12.9 0.00 0.00 0.00 71 1016.7
20260506005945 20 162 11.3 14.5 0.00 0.00 0.00 71 1016.5
20260506005444 20 168 9.7 11.3 0.00 0.00 0.00 70 1016.6
20260506004938 20 167 8.0 12.9 0.00 0.00 0.00 70 1016.5
20260506004437 20 177 9.7 12.9 0.00 0.00 0.00 70 1016.4
20260506003932 20 177 12.9 16.1 0.00 0.00 0.00 70 1016.5
20260506003429 20 195 6.4 11.3 0.00 0.00 0.00 69 1016.4
20260506002926 20 176 9.7 12.9 0.00 0.00 0.00 69 1016.6
20260506002422 20 208 9.7 11.3 0.00 0.00 0.00 68 1016.4
20260506001917 20 174 8.0 12.9 0.00 0.00 0.00 68 1016.3
20260506001415 20 172 4.8 8.0 0.00 0.00 0.00 68 1016.4
20260506000912 20 189 6.4 9.7 0.00 0.00 0.00 68 1016.3
20260506000409 21 186 6.4 8.0 0.00 0.00 0.00 67 1016.3
20260505235906 21 213 6.4 8.0 0.00 0.00 0.00 67 1016.5
20260505235404 21 221 8.0 11.3 0.00 0.00 0.00 66 1016.1
20260505234900 21 170 8.0 12.9 0.00 0.00 0.00 66 1015.8
20260505234358 21 177 9.7 11.3 0.00 0.00 0.00 65 1016.1
20260505233855 21 187 16.1 20.9 0.00 0.00 0.00 65 1015.7
20260505233353 21 206 11.3 12.9 0.00 0.00 0.00 64 1015.8
20260505232850 21 151 11.3 14.5 0.00 0.00 0.00 63 1015.8
20260505232348 22 189 16.1 17.7 0.00 0.00 0.00 63 1016.3
20260505231844 22 204 14.5 16.1 0.00 0.00 0.00 62 1016.1
20260505231341 22 197 17.7 25.7 0.00 0.00 0.00 62 1016.0
20260505230840 22 172 19.3 20.9 0.00 0.00 0.00 62 1015.6
20260505230337 22 203 11.3 12.9 0.00 0.00 0.00 62 1015.7
20260505225833 22 239 11.3 14.5 0.00 0.00 0.00 62 1015.6
20260505225330 22 207 19.3 22.5 0.00 0.00 0.00 61 1015.6
20260505224825 23 228 20.9 25.7 0.00 0.00 0.00 60 1016.0
20260505224324 23 173 14.5 14.5 0.00 0.00 0.00 60 1015.6
20260505223820 23 178 17.7 24.1 0.00 0.00 0.00 59 1015.7
20260505223317 23 191 11.3 12.9 0.00 0.00 0.00 60 1015.8
20260505222813 23 184 19.3 24.1 0.00 0.00 0.00 59 1016.0
20260505222309 23 200 20.9 27.4 0.00 0.00 0.00 59 1015.9
20260505221807 23 182 14.5 16.1 0.00 0.00 0.00 58 1015.8
20260505221303 23 213 20.9 27.4 0.00 0.00 0.00 58 1015.8
20260505220800 23 205 12.9 14.5 0.00 0.00 0.00 57 1016.0
20260505220257 23 221 16.1 22.5 0.00 0.00 0.00 58 1015.8
20260505215755 24 222 9.7 12.9 0.00 0.00 0.00 57 1016.0
20260505215253 24 203 17.7 22.5 0.00 0.00 0.00 56 1015.8
20260505214750 24 214 19.3 24.1 0.00 0.00 0.00 56 1015.8
20260505214248 24 176 17.7 22.5 0.00 0.00 0.00 56 1015.6
20260505213745 25 179 16.1 17.7 0.00 0.00 0.00 55 1015.7
20260505213242 24 197 14.5 17.7 0.00 0.00 0.00 56 1015.7
20260505212738 24 212 16.1 20.9 0.00 0.00 0.00 56 1015.6
20260505212236 24 195 19.3 29.0 0.00 0.00 0.00 56 1015.5
20260505211732 25 222 9.7 12.9 0.00 0.00 0.00 55 1015.5
20260505211230 25 185 12.9 16.1 0.00 0.00 0.00 54 1015.6
20260505210726 25 220 17.7 24.1 0.00 0.00 0.00 54 1015.7
20260505210223 25 202 14.5 20.9 0.00 0.00 0.00 53 1015.5
20260505205720 25 198 11.3 12.9 0.00 0.00 0.00 54 1015.6
20260505205218 25 235 12.9 14.5 0.00 0.00 0.00 53 1015.6
20260505204715 26 176 19.3 22.5 0.00 0.00 0.00 52 1015.4
20260505204213 25 206 19.3 22.5 0.00 0.00 0.00 52 1015.7
20260505203710 25 201 16.1 17.7 0.00 0.00 0.00 52 1015.7
20260505203206 25 173 20.9 24.1 0.00 0.00 0.00 53 1015.5
20260505202702 25 170 19.3 27.4 0.00 0.00 0.00 52 1015.5
20260505202158 26 205 17.7 22.5 0.00 0.00 0.00 52 1015.5
20260505201655 26 214 19.3 22.5 0.00 0.00 0.00 51 1015.5
20260505201153 26 178 25.7 29.0 0.00 0.00 0.00 50 1015.6
20260505200651 26 165 17.7 24.1 0.00 0.00 0.00 52 1015.6
20260505200147 26 200 17.7 20.9 0.00 0.00 0.00 50 1015.6
20260505195643 26 161 19.3 24.1 0.00 0.00 0.00 50 1015.9
20260505195141 26 191 16.1 20.9 0.00 0.00 0.00 49 1015.8
20260505194638 26 246 11.3 14.5 0.00 0.00 0.00 48 1016.1
20260505194134 26 214 16.1 20.9 0.00 0.00 0.00 48 1016.0
20260505193631 27 209 14.5 20.9 0.00 0.00 0.00 49 1015.9
20260505193128 26 182 16.1 20.9 0.00 0.00 0.00 48 1016.3
20260505192626 26 209 16.1 22.5 0.00 0.00 0.00 49 1016.0
20260505192123 26 217 16.1 20.9 0.00 0.00 0.00 44 1016.4
20260505191622 27 174 19.3 25.7 0.00 0.00 0.00 45 1016.3
20260505191119 26 250 12.9 14.5 0.00 0.00 0.00 45 1016.3
20260505190615 26 167 20.9 22.5 0.00 0.00 0.00 45 1016.7
20260505190110 26 222 9.7 12.9 0.00 0.00 0.00 45 1016.5
20260505185607 26 190 17.7 20.9 0.00 0.00 0.00 48 1016.5
20260505185103 26 174 16.1 17.7 0.00 0.00 0.00 48 1016.5
20260505184559 26 154 12.9 17.7 0.00 0.00 0.00 48 1016.5
20260505184056 26 180 19.3 22.5 0.00 0.00 0.00 49 1016.8
20260505183553 26 172 16.1 22.5 0.00 0.00 0.00 45 1016.7
20260505183051 26 162 17.7 20.9 0.00 0.00 0.00 44 1016.7
20260505182546 26 199 11.3 14.5 0.00 0.00 0.00 45 1016.7
20260505182043 26 192 8.0 12.9 0.00 0.00 0.00 46 1016.8
20260505181540 26 208 14.5 24.1 0.00 0.00 0.00 46 1017.0
20260505181038 26 155 16.1 22.5 0.00 0.00 0.00 46 1016.6
20260505180533 26 155 17.7 20.9 0.00 0.00 0.00 48 1016.8
20260505180032 26 177 16.1 27.4 0.00 0.00 0.00 47 1016.7
20260505175532 25 202 11.3 12.9 0.00 0.00 0.00 48 1016.8
20260505175029 26 159 17.7 20.9 0.00 0.00 0.00 48 1016.9
20260505174526 26 190 14.5 16.1 0.00 0.00 0.00 47 1016.9
20260505174022 26 231 17.7 20.9 0.00 0.00 0.00 47 1016.7
20260505173519 27 239 11.3 12.9 0.00 0.00 0.00 44 1016.9
20260505173016 26 271 12.9 17.7 0.00 0.00 0.00 46 1016.9
20260505172514 26 230 16.1 17.7 0.00 0.00 0.00 48 1016.9
20260505172009 26 232 14.5 17.7 0.00 0.00 0.00 46 1017.1
20260505171505 26 214 8.0 9.7 0.00 0.00 0.00 48 1017.1
20260505171002 25 228 17.7 25.7 0.00 0.00 0.00 48 1017.1
20260505170459 25 187 17.7 17.7 0.00 0.00 0.00 49 1017.1
20260505165954 25 190 11.3 14.5 0.00 0.00 0.00 50 1017.3
20260505165450 25 189 11.3 16.1 0.00 0.00 0.00 50 1017.3
20260505164946 25 210 16.1 17.7 0.00 0.00 0.00 49 1017.3
20260505164442 25 201 8.0 11.3 0.00 0.00 0.00 50 1017.6
20260505163940 25 213 12.9 16.1 0.00 0.00 0.00 48 1017.5
20260505163439 25 206 14.5 16.1 0.00 0.00 0.00 49 1017.3
20260505162938 25 215 8.0 9.7 0.00 0.00 0.00 48 1017.5
20260505162433 25 199 17.7 22.5 0.00 0.00 0.00 51 1017.3
20260505161930 25 226 14.5 16.1 0.00 0.00 0.00 49 1017.3
20260505161427 25 209 14.5 17.7 0.00 0.00 0.00 48 1017.6
20260505160924 25 246 8.0 11.3 0.00 0.00 0.00 50 1017.7
20260505160423 25 222 11.3 16.1 0.00 0.00 0.00 50 1017.7
20260505152858 24 194 17.7 17.7 0.00 0.00 0.00 51 1018.0
20260505152355 24 173 11.3 14.5 0.00 0.00 0.00 53 1017.7
20260505151849 23 248 9.7 9.7 0.00 0.00 0.00 53 1017.8
20260505151346 23 213 12.9 16.1 0.00 0.00 0.00 53 1017.7
20260505150843 24 230 14.5 16.1 0.00 0.00 0.00 52 1017.8
20260505150340 23 213 8.0 9.7 0.00 0.00 0.00 54 1017.9
20260505140305 22 197 16.1 20.9 0.00 0.00 0.00 58 1017.9
20260505130228 20 186 20.9 24.1 0.00 0.00 0.00 65 1017.8
20260505124719 20 197 11.3 14.5 0.00 0.00 0.00 69 1018.0
20260505124216 19 228 9.7 11.3 0.00 0.00 0.00 71 1018.1
20260505123711 19 217 9.7 12.9 0.00 0.00 0.00 72 1018.1
20260505123209 18 206 9.7 12.9 0.00 0.00 0.00 73 1018.0
20260505122705 18 221 6.4 8.0 0.00 0.00 0.00 74 1018.1
20260505122202 18 254 9.7 11.3 0.00 0.00 0.00 74 1017.8
20260505121658 18 218 6.4 8.0 0.00 0.00 0.00 75 1017.9
20260505121155 17 204 8.0 9.7 0.00 0.00 0.00 76 1017.8
20260505120651 17 232 8.0 9.7 0.00 0.00 0.00 77 1017.7
20260505120147 17 232 8.0 11.3 0.00 0.00 0.00 78 1017.8
20260505115641 17 220 9.7 11.3 0.00 0.00 0.00 79 1017.7
20260505115139 17 226 8.0 9.7 0.00 0.00 0.00 79 1017.6
20260505114636 16 201 4.8 4.8 0.00 0.00 0.00 80 1017.8
20260505114132 16 201 8.0 9.7 0.00 0.00 0.00 81 1017.8
20260505113629 16 224 6.4 8.0 0.00 0.00 0.00 81 1017.8
20260505113126 15 172 4.8 4.8 0.00 0.00 0.00 82 1017.6
20260505112622 15 190 4.8 4.8 0.00 0.00 0.00 82 1017.5
20260505112120 15 177 4.8 8.0 0.00 0.00 0.00 82 1017.4
20260505111614 15 223 8.0 11.3 0.00 0.00 0.00 82 1017.5
20260505111110 15 192 6.4 8.0 0.00 0.00 0.00 83 1017.5
20260505110606 15 195 4.8 4.8 0.00 0.00 0.00 83 1017.5
20260505110104 15 207 4.8 4.8 0.00 0.00 0.00 83 1017.4
20260505102039 14 215 4.8 4.8 0.00 0.00 0.00 84 1016.8
20260505101537 14 198 6.4 8.0 0.00 0.00 0.00 84 1017.0
20260505101033 14 181 3.2 3.2 0.00 0.00 0.00 84 1017.1
20260505100531 14 163 6.4 8.0 0.00 0.00 0.00 84 1016.9
20260505100027 14 173 8.0 11.3 0.00 0.00 0.00 85 1016.8
20260505095524 14 188 4.8 4.8 0.00 0.00 0.00 84 1016.7
20260505095020 14 183 4.8 4.8 0.00 0.00 0.00 84 1016.7
20260505094517 14 203 4.8 8.0 0.00 0.00 0.00 84 1016.7
20260505094013 14 191 6.4 8.0 0.00 0.00 0.00 84 1016.7
20260505093509 14 185 6.4 8.0 0.00 0.00 0.00 84 1016.8
20260505093007 14 190 4.8 4.8 0.00 0.00 0.00 84 1016.5
20260505092504 14 169 4.8 8.0 0.00 0.00 0.00 84 1016.7
20260505092002 14 165 4.8 8.0 0.00 0.00 0.00 83 1016.6
20260505091459 15 166 4.8 8.0 0.00 0.00 0.00 83 1016.3
20260505090957 15 167 6.4 9.7 0.00 0.00 0.00 83 1016.6
20260505090455 14 162 6.4 8.0 0.00 0.00 0.00 83 1016.3
20260505085952 14 173 4.8 4.8 0.00 0.00 0.00 83 1016.4
20260505085450 14 190 4.8 8.0 0.00 0.00 0.00 83 1016.3
20260505084948 14 187 4.8 4.8 0.00 0.00 0.00 83 1016.5
20260505084446 14 191 4.8 4.8 0.00 0.00 0.00 83 1016.3
20260505083943 14 170 6.4 8.0 0.00 0.00 0.00 83 1016.3
20260505083440 14 173 8.0 9.7 0.00 0.00 0.00 83 1016.2
20260505082937 14 189 4.8 4.8 0.00 0.00 0.00 83 1016.2
20260505082432 15 203 4.8 4.8 0.00 0.00 0.00 83 1016.4
20260505081930 14 188 4.8 4.8 0.00 0.00 0.00 83 1016.3
20260505081427 15 172 4.8 4.8 0.00 0.00 0.00 82 1016.2